Reflectivity
-20 -20 -20 -20 -20 -20 19 15 10 -20 -9 29 25 -19 -20 -20 -20 -20 -20 -20 -20 -20 -20 -20 -20 -20 3 16 12 -20 -20 -20 -20 -20 -20 -5 9 -20 -20 -20 -20 -20 -20 -20
-20 -20 -20 -20 -19 -14 -20 -5 3 -17 -20 14 16 13 -20 -4 -19 -20 -20 -20 -20 -20 -20 -20 -20 -20 -20 9 2 -8 -20 -8 20 -15 -20 -20 5 -5 -20 -20 -20 -20 -20 -20
-20 -20 -20 -20 -20 -20 -20 -5 -20 -9 -20 -20 -9 -8 -20 -20 -16 4 -20 -20 -20 -20 -20 -20 -20 -20 -4 4 14 17 -9 -20 17 -20 19 -20 -12 -15 0 -20 -20 -20 -20 -20
-20 -20 -20 -20 -20 -20 -20 -20 -19 -20 5 -12 -11 8 -20 -20 -20 -16 -20 -20 -20 -20 -20 -20 -20 -20 -16 6 -19 4 9 -20 -20 12 13 -14 -16 -20 -20 -20 -20 -20 -20 -20
-20 -20 -20 -20 -20 -13 -17 -20 -20 -19 -20 5 -20 9 -15 -20 -20 -20 -20 -20 -20 -20 -20 -20 -20 -20 -20 -10 11 9 10 -20 -20 -20 18 -6 -20 -20 9 -19 -20 -20 -20 -20
-20 -20 -20 -20 -1 6 -6 -5 -20 16 13 13 -16 -18 -20 8 -20 -20 -20 -20 -20 -20 -20 -20 -20 -20 -20 -8 -17 -1 -17 -20 -20 -0 -20 26 -17 -20 -20 22 -13 -8 -20 -20
-20 -20 -20 -14 -15 9 15 7 -13 16 7 2 -20 -20 -20 -20 -20 -20 -20 -20 -20 -20 -20 -20 -20 -20 -20 -20 -19 -20 -20 -20 -20 -20 -20 -6 -5 -20 -20 -15 9 -6 2 8
2 -20 -20 -20 6 15 6 18 -20 13 -5 -20 -20 -18 -18 -20 -20 -20 3 4 -20 -20 -20 -20 -20 -20 -20 -20 -13 -20 -20 -18 -20 -20 -20 0 -5 18 8 16 -14 -13 19 17
2 -20 -20 -5 7 22 6 14 9 7 9 20 -20 13 -20 -20 -20 -13 -19 -3 -20 -20 -20 -20 -20 -20 -20 -20 -20 -20 -20 -20 -20 -20 -20 1 23 -1 6 -16 -18 -9 -4 12
-5 -8 -20 -3 9 12 15 11 -14 10 4 -19 -20 -7 -20 -20 -20 -4 -20 6 -20 -20 -20 -20 -20 -20 -20 -20 -20 1 -20 -19 -20 -20 -20 -20 -13 33 -4 14 -8 -2 -19 6
-20 -17 -6 5 11 9 7 -5 -10 6 -20 14 -12 -20 -20 -20 -20 -9 -14 9 -10 -20 -20 -20 -20 -20 -20 -20 -20 -20 17 -20 -9 -20 -20 -20 -20 -5 32 11 -16 25 7 16
3 5 -15 3 6 10 2 15 19 1 17 8 -7 16 15 -20 -20 14 -3 8 18 -20 -20 -20 -20 -20 -20 -20 -20 -20 25 -20 -6 -20 -20 -20 -20 -12 -19 -17 -20 -20 -20 -2
13 -20 -5 2 -0 0 -4 18 12 3 -14 20 23 25 21 -20 -20 -20 -13 -14 13 -20 -20 -20 -20 -20 -20 -20 -9 -20 -20 -20 8 -13 -20 -20 -18 10 16 -2 -20 -20 11 15
-20 -20 -20 -10 -7 12 17 7 16 15 8 19 23 22 21 13 8 -19 -13 -20 -20 -20 -20 -20 -20 -20 -20 -20 -20 -20 -7 -17 1 12 -20 -20 -20 -15 -20 -12 -20 -20 1 29
-20 -20 -20 -20 2 14 15 8 13 21 17 24 24 23 28 27 26 15 10 -1 -14 -20 -20 -20 -19 -20 -20 -13 24 15 -20 -12 -12 15 19 -20 -20 -20 6 -15 -20 6 14 -19
-20 -20 -20 -20 -12 9 12 5 10 16 11 26 26 26 25 27 25 -11 -14 -5 -20 -20 -20 -20 -20 -10 -17 -7 13 27 27 -20 -20 -20 16 -0 -20 -16 -20 -20 5 -20 -19 -13
-20 -12 -16 -8 -18 3 7 17 15 10 17 28 25 27 25 26 18 16 0 -18 -1 -20 -20 -20 -20 -13 -7 -9 -20 -20 26 25 -20 2 -3 -1 -11 -11 -20 -20 -20 0 17 0
-20 -20 -7 -20 -13 -7 16 8 16 19 25 26 24 25 29 23 20 24 -4 -18 -3 -20 -20 -20 -20 -1 -20 -16 -20 -20 -20 24 16 3 -14 -1 -6 -20 -20 -20 -20 11 -3 -3
-20 -20 -20 -20 -20 -10 4 2 10 14 23 24 24 22 23 16 15 -15 -3 -17 -20 -20 -20 -20 -16 8 15 4 -18 -20 -6 -7 4 16 18 12 -8 -20 2 18 -20 -20 31 -19
-20 -20 -20 -20 -20 -20 5 -5 6 14 21 17 14 14 20 15 9 -1 -20 -10 -20 -20 -20 -20 -14 -2 18 4 -20 -17 10 17 22 1 7 -18 -20 2 15 9 -20 -20 3 27
-20 -20 -20 -20 -16 -20 -17 -3 -9 10 -18 3 4 1 -7 -7 8 -17 -20 -20 -20 -20 -20 -20 1 1 3 10 -5 19 -7 -20 -18 -10 -9 18 3 6 3 -1 1 -20 23 8
-20 -20 -20 -20 -19 -17 -20 -20 -13 -4 -18 -20 -20 4 -8 -15 -17 -9 -15 -20 -20 -20 -20 -20 -10 -17 -8 20 18 30 12 18 8 13 18 13 13 -4 -2 -5 7 -1 2 23
-20 -20 -20 -20 -20 -20 -20 -20 -20 -17 -18 -18 4 -5 -9 -13 -11 -17 -17 -20 -20 -20 -20 -20 -15 -4 -20 -6 8 16 33 28 18 24 16 21 22 23 -1 -9 2 11 35 12
-20 -20 -20 -20 -20 -20 -20 -20 -20 -20 -20 -1 -20 -20 -20 -20 -20 -20 -20 -20 -20 -20 -20 -20 -20 -20 -20 -20 -20 -20 -6 23 22 27 37 19 11 14 22 27 28 37 24 15
-20 -20 -20 -20 -20 -20 -20 -20 -20 -20 -14 -20 -20 -20 -10 -20 -20 -12 -20 -20 -20 -20 -18 -20 -20 -20 -20 -6 3 -5 8 4 22 18 31 38 27 24 24 20 9 18 24 20
-20 -20 -20 -20 -20 -20 -20 -20 -20 -20 1 -20 -20 -20 -20 -20 -20 -20 -20 -6 -20 -20 -19 -20 -20 -20 -20 -20 -5 4 3 5 4 4 28 36 30 9 31 20 23 29 21 24
Wind_Speed
5 3 6 14 13 18 11 10 15 22 20 10 22 26 20 17 14 16 20 18 15 16 9 13 16 17 15 16 17 19 18 18 14 12 11 11 11 9 8 7 11 11 9 9
5 6 8 12 16 18 21 20 17 16 16 17 24 28 17 17 24 22 19 17 17 8 10 10 16 19 22 18 19 18 19 19 15 12 12 11 12 9 10 7 9 11 11 10
3 13 13 15 17 15 16 11 8 13 14 21 15 27 27 17 21 18 19 22 18 16 16 14 15 21 18 21 20 20 19 19 17 17 11 8 7 6 4 7 7 9 13 12
7 9 18 21 17 14 14 12 17 17 12 11 8 18 18 14 20 21 20 18 18 16 16 16 17 19 20 18 20 21 20 21 16 17 15 19 13 13 9 11 8 9 12 11
14 20 21 21 13 12 10 14 17 16 13 12 15 7 2 12 17 20 23 22 23 22 15 18 18 18 20 17 19 18 19 19 18 19 16 16 15 10 8 7 10 9 6 11
15 13 9 8 11 13 18 12 17 13 12 16 14 11 10 6 6 11 16 21 22 19 13 18 19 18 18 19 20 19 20 20 18 18 19 17 19 14 11 10 10 7 6 4
18 11 8 7 17 10 8 12 4 7 9 7 10 11 13 11 20 19 20 21 19 20 15 14 17 17 17 22 22 21 22 20 19 18 18 20 17 20 20 17 13 13 8 6
7 28 13 12 14 10 17 6 3 7 6 10 13 11 6 21 16 6 8 15 19 16 15 17 18 20 19 21 21 21 23 20 20 19 17 16 17 12 14 15 13 12 11 11
7 17 25 15 14 6 6 3 7 5 9 4 5 3 0 9 15 8 12 8 11 16 18 19 19 20 19 20 22 22 22 20 21 20 16 14 14 14 14 14 12 10 11 9
4 21 11 15 12 6 9 4 6 4 4 6 4 7 5 8 10 12 9 9 5 8 9 11 14 18 16 19 18 21 23 21 20 19 18 15 15 12 12 13 14 13 11 11
8 6 13 12 8 12 8 4 3 5 5 4 3 3 13 16 10 9 8 7 5 9 12 15 14 16 16 16 16 19 22 22 21 19 17 18 16 16 13 13 14 13 12 13
3 5 10 19 7 5 7 6 5 4 4 5 4 6 19 16 2 12 7 12 8 2 8 11 15 16 15 17 17 16 18 19 20 19 18 17 16 15 15 14 14 14 14 13
4 3 10 9 2 2 6 12 20 3 2 5 4 4 19 19 17 16 17 9 6 6 8 7 10 11 13 14 15 16 18 19 19 19 19 17 16 15 16 14 13 14 14 13
9 3 4 6 13 13 13 22 24 15 3 4 6 11 20 23 16 14 16 9 14 14 17 13 10 3 4 11 13 14 14 18 18 18 19 18 18 17 16 16 16 16 16 15
2 4 11 16 12 6 13 23 21 27 18 10 14 12 20 20 12 12 15 18 19 19 20 16 15 12 7 4 5 13 15 17 17 17 18 18 17 16 15 15 15 15 16 16
3 5 13 5 7 9 13 25 12 24 27 14 17 8 18 19 9 24 20 22 20 20 19 18 17 15 12 10 3 6 13 17 17 17 17 16 16 16 16 15 15 15 14 14
4 7 5 6 12 11 5 24 18 10 19 18 17 18 19 15 21 24 22 22 20 17 16 16 16 14 12 10 9 6 12 14 16 16 15 17 17 17 16 16 15 15 15 14
9 8 4 6 10 5 4 15 15 12 18 25 20 20 20 19 4 22 23 19 18 18 17 15 13 14 14 11 11 8 8 13 14 15 15 17 17 17 16 16 16 15 14 16
5 4 5 4 4 1 4 24 21 9 3 23 23 26 27 28 7 11 27 20 16 16 14 14 13 12 12 12 11 7 11 11 12 14 15 16 17 17 16 15 15 14 14 13
6 5 2 5 4 7 8 26 27 2 2 26 24 23 21 23 15 10 22 19 17 15 12 14 14 11 12 14 13 4 9 11 11 13 15 16 16 17 17 16 15 13 13 13
7 6 5 6 4 3 15 18 18 12 12 25 21 20 18 15 8 15 16 15 13 12 14 13 11 11 12 13 11 9 5 8 10 9 12 14 15 16 16 16 14 14 14 14
2 5 4 5 5 5 19 5 11 9 13 18 17 13 15 14 14 13 13 13 14 15 15 13 10 11 11 11 9 9 10 8 8 12 12 11 13 12 13 16 12 14 15 15
5 5 3 1 4 9 14 5 6 12 14 14 14 14 14 13 12 12 11 11 11 12 10 10 9 9 11 11 9 8 8 7 10 12 14 14 13 12 13 16 16 13 14 13
6 4 1 7 3 14 12 2 13 14 15 15 11 12 11 11 9 8 9 10 10 10 10 9 9 9 9 9 11 9 8 9 11 14 13 11 14 14 12 10 10 11 12 13
2 7 6 6 4 14 4 15 16 19 16 14 11 9 9 8 9 11 10 10 9 9 9 9 9 8 9 9 10 9 7 10 12 12 12 13 9 13 12 9 8 9 8 11
1 2 2 6 12 10 16 18 23 16 13 14 12 12 11 11 10 9 9 9 9 10 10 9 9 9 10 10 10 10 8 8 12 13 10 11 10 10 11 12 12 20 19 21
Wind_Direction
311 310 263 273 277 292 303 299 295 277 265 318 248 247 245 230 222 216 225 213 196 206 194 190 187 186 188 188 179 176 168 171 163 163 157 157 165 164 156 163 157 159 156 153
349 259 275 324 316 295 292 281 279 278 275 246 256 273 279 281 232 220 209 221 222 160 188 186 191 196 197 187 178 177 174 173 176 166 167 174 170 167 160 154 159 159 158 160
201 266 297 308 304 295 292 260 290 285 299 283 285 260 259 237 253 216 209 212 213 193 188 195 188 198 196 193 183 179 173 175 178 166 168 149 96 99 101 150 159 176 168 166
288 286 310 303 297 296 276 262 259 273 285 252 182 258 241 205 219 222 212 212 211 202 197 194 191 193 196 195 185 178 175 173 176 168 169 155 164 164 180 179 166 167 169 164
273 292 297 292 283 298 272 292 276 252 253 262 250 263 265 201 216 218 218 212 216 227 195 188 198 193 193 185 186 177 173 174 169 171 172 168 166 175 154 147 147 165 161 167
293 291 272 251 288 279 298 297 252 241 250 245 225 203 245 210 198 226 224 216 208 208 198 194 192 193 187 183 181 173 169 172 170 170 165 184 166 152 157 152 161 160 162 143
313 313 305 239 319 299 301 325 263 203 221 239 194 205 233 269 229 212 212 228 215 210 194 189 188 192 184 184 178 172 171 171 170 172 173 170 177 161 163 169 169 160 165 170
338 323 335 315 309 295 303 209 253 238 198 213 189 206 217 220 230 218 219 229 209 193 189 195 187 188 185 183 178 173 171 170 170 171 172 178 172 175 166 179 170 175 176 164
309 303 318 299 357 297 339 231 265 264 248 261 230 242 109 206 219 210 222 178 181 187 190 192 186 189 184 179 179 170 166 171 176 170 169 166 166 181 166 168 162 168 160 150
267 301 302 331 332 307 306 293 344 261 263 217 246 176 189 164 196 203 193 166 205 186 180 187 183 184 185 180 176 173 169 170 172 171 171 169 163 180 168 156 159 165 151 147
295 215 295 321 328 304 343 333 320 270 261 267 139 185 4 311 200 196 154 129 178 216 188 184 181 182 177 175 171 176 172 163 171 173 169 170 170 169 166 162 163 157 148 145
253 281 309 310 315 180 351 285 255 230 290 269 254 85 349 310 228 91 48 43 10 178 191 184 177 177 173 170 173 174 166 164 173 170 166 172 168 163 165 162 154 145 149 147
286 278 315 331 345 230 335 336 344 242 273 278 347 348 339 358 37 39 56 26 24 13 58 102 140 161 167 170 172 176 163 165 172 168 166 168 170 169 167 162 147 152 145 148
357 274 226 272 279 302 341 358 8 13 346 22 59 352 347 356 0 32 52 39 52 44 44 47 41 74 148 165 164 161 160 162 168 170 166 165 170 173 171 163 156 157 165 158
67 278 300 307 300 302 13 353 22 27 15 39 346 356 352 336 322 36 56 49 44 37 38 37 33 21 355 143 188 169 158 158 167 169 170 169 169 171 163 162 160 158 166 157
346 285 317 300 301 329 31 1 13 28 22 18 11 350 336 334 25 43 40 43 38 28 19 23 23 19 14 355 256 174 163 157 165 168 171 164 167 167 163 160 162 158 153 152
302 314 317 300 322 318 355 7 353 22 34 11 2 327 332 352 39 35 33 33 28 20 13 11 4 355 351 344 326 199 170 159 164 162 164 168 165 165 160 157 155 158 153 150
305 317 295 290 314 51 145 10 357 353 37 12 351 347 352 351 58 48 30 23 16 6 1 1 357 345 340 334 316 268 157 170 162 160 166 167 167 163 156 157 158 159 157 158
347 305 311 330 320 273 323 352 345 336 357 13 343 348 355 357 350 29 14 7 10 1 354 345 352 336 328 328 319 218 167 166 171 166 168 165 163 154 152 154 156 152 151 144
331 355 20 328 343 21 357 333 330 249 176 359 345 352 353 352 21 340 341 351 360 353 351 348 340 338 338 342 340 149 156 160 175 170 167 162 157 154 157 155 154 154 149 145
344 348 11 353 351 69 355 345 334 43 317 327 337 338 345 351 337 315 326 345 352 351 351 352 349 350 349 342 354 25 109 160 161 149 150 156 152 150 144 140 142 140 141 136
65 345 344 352 11 360 13 352 36 303 307 319 324 331 336 330 330 333 341 349 350 357 356 356 358 355 352 357 9 35 32 334 119 128 121 121 130 133 136 134 133 136 137 135
13 138 228 307 270 342 327 266 356 332 318 318 320 335 328 329 333 340 338 353 359 4 358 357 7 1 1 10 24 47 13 33 81 103 114 115 111 119 131 134 135 132 136 135
349 11 229 342 146 337 328 49 333 326 318 308 318 319 325 330 330 338 354 6 7 9 8 359 13 25 20 15 29 34 39 54 82 87 92 97 112 116 116 119 127 135 140 140
237 336 319 265 292 320 214 332 315 323 315 331 333 335 336 331 358 10 11 14 13 15 11 14 21 23 25 29 38 32 38 82 80 89 98 97 95 105 107 100 115 126 128 145
330 327 323 281 317 293 286 306 312 312 335 334 352 351 360 10 13 9 21 21 23 20 17 25 28 33 29 35 41 41 41 74 97 93 90 102 104 103 105 104 96 88 105 120